sat.trackr.live / text

‹ back to catalog

IRIDIUM 147

NORAD 43480 · 2018-047E

PAYLOAD ACTIVE UNKNOWN

§ Identity

Operator
Country
US
Launch date
2018-05-22
Launch site
AFWTR
Launch vehicle
Mass (kg)
RCS (m²)

Purposes: comms

External: N2YO · Heavens-Above · Gunter

§ Orbital elements

Epoch: 2026-09-20T03:11:23.964864Z

Period
100.40 min
Inclination
86.3947°
Eccentricity
0.0002023
Mean motion
14.34214316 rev/d
Perigee alt
776.2 km
Apogee alt
779.1 km
Semi-major
7,155.8 km
B*
5.3133e-5
RAAN
48.6060°
Arg perigee
91.8013°
Mean anomaly
268.3415°
Rev number
43,609

§ Raw data

IRIDIUM 1471 43480U 18047E   26263.13291626  .00000169  00000+0  53133-4 0  99922 43480  86.3947  48.6060 0002023  91.8013 268.3415 14.34214316436091

JSON: /api/v1/satellites/43480 · /tle

For live sub-satellite position, see the globe view (requires WebGL).

§ Visibility from observer

Set your observer location to see the next 7 days of passes ≥ 10°. The values pass through the URL so the page stays shareable.

No JS? Fill the form by hand. The geolocation button needs JavaScript.